Location: Fauquembergues
(50.6005°N, 2.0987°E)
Time: 03:17:10
(UTC+00:00)

Cosmos 724 - Pass Details

Date: 14 July 2020
Orbit: 859 x 936 km, 65.6° (Epoch: 06 August)

Event Time Altitude Azimuth Distance (km) Brightness Sun altitude
Exits shadow 00:59:22 25° 214° (SW) 1,687 5.2 -16.5°
Maximum altitude 01:02:55 85° 129° (SE) 874 4.2 -16.3°
Drops below altitude 10° 01:08:48 10° 40° (NE) 2,533 7.8 -16.1°
Sets 01:11:18 0° 40° (NE) 3,485 8.7 -16.0°
